sat.trackr.live / text

‹ back to catalog

STARLINK-3798

NORAD 52371 · 2022-045AS

PAYLOAD ACTIVE UNKNOWN

§ Identity

Operator
Country
US
Launch date
2022-04-29
Launch site
AFETR
Launch vehicle
Mass (kg)
RCS (m²)

Purposes: comms

External: N2YO · Heavens-Above · Gunter

§ Orbital elements

Epoch: 2026-09-19T23:13:21.084096Z

Period
94.01 min
Inclination
53.1626°
Eccentricity
0.0001135
Mean motion
15.31703000 rev/d
Perigee alt
470.0 km
Apogee alt
471.5 km
Semi-major
6,848.9 km
B*
1.9786e-5
RAAN
24.2415°
Arg perigee
77.6894°
Mean anomaly
282.4234°
Rev number
24,541

§ Raw data

STARLINK-37981 52371U 22045AS  26262.96760514  .00000249  00000+0  19786-4 0  99962 52371  53.1626  24.2415 0001135  77.6894 282.4234 15.31703000245413

JSON: /api/v1/satellites/52371 · /tle

For live sub-satellite position, see the globe view (requires WebGL).

§ Visibility from observer

Set your observer location to see the next 7 days of passes ≥ 10°. The values pass through the URL so the page stays shareable.

No JS? Fill the form by hand. The geolocation button needs JavaScript.